Linden, WI

3:50 AM CST on January 17, 2017 (GMT -0600)
Iowa County

Weather History for KMRJ - February, 2014

Change the Weather History Date:

Thursday, February 20, 2014

  Actual Average (KLNR) Record (KLNR)
Temperature  
Mean Temperature 36 °F -  
Max Temperature 39 °F 33 °F 51 °F (2003)
Min Temperature 32 °F 18 °F -16 °F (2008)
Degree Days  
Heating Degree Days 29    
Moisture  
Dew Point 33 °F    
Average Humidity 90    
Maximum Humidity 100    
Minimum Humidity 70    
Precipitation  
Precipitation 0.12 in - - ()
Sea Level Pressure  
Sea Level Pressure 29.43 in    
Wind  
Wind Speed 13 mph (SE)    
Max Wind Speed 32 mph    
Max Gust Speed 40 mph    
Visibility 7 miles    
Events Rain , Snow    
Averages and records for this station are not official NWS values.
T = Trace of Precipitation, MM = Missing Value Source: NWS Daily Summary

Daily Weather History Graph

Daily Weather History Graph

Search for Another Location

Airport or City:

Trip Planner

Search our weather history database for the weather conditions in past years. The results will help you decide how hot, cold, wet, or windy it might be!

Date:

Astronomy

Feb. 20, 2014 Rise Set
Actual Time 6:50 AM CST 5:39 PM CST
Civil Twilight 6:22 AM CST 6:07 PM CST
Nautical Twilight 5:49 AM CST 6:40 PM CST
Astronomical Twilight 5:16 AM CST 7:13 PM CST
Moon 11:43 PM CST (2/20) 9:25 AM CST (2/20)
Length of Visible Light 11h 45m
Length of Day
10h 48m
Waning Gibbous, 70% of the Moon is Illuminated
Feb 20
Waning Gibbous
Feb 22
Last Quarter
Mar 1
New
Mar 8
First Quarter
Mar 16
Full

Hourly Weather History & Observations

Time (CST) Temp. Windchill Dew Point Humidity Pressure Visibility Wind Dir Wind Speed Gust Speed Precip Events Conditions
12:15 AM 33.8 °F 27.7 °F 28.4 °F 81% 29.81 in 10.0 mi SE 6.9 mph - N/A   Overcast
12:35 AM 33.8 °F 26.4 °F 28.4 °F 81% 29.80 in 10.0 mi SE 9.2 mph - N/A   Overcast
12:55 AM 33.8 °F 25.8 °F 28.4 °F 81% 29.80 in 10.0 mi SE 10.4 mph - N/A   Overcast
1:15 AM 35.6 °F 28.0 °F 26.6 °F 70% 29.78 in 10.0 mi SE 10.4 mph - N/A   Overcast
1:35 AM 35.6 °F 28.6 °F 26.6 °F 70% 29.77 in 10.0 mi SE 9.2 mph - N/A   Overcast
1:55 AM 35.6 °F 28.6 °F 28.4 °F 75% 29.76 in 10.0 mi SE 9.2 mph - N/A   Overcast
2:15 AM 35.6 °F 28.6 °F 28.4 °F 75% 29.75 in 10.0 mi SE 9.2 mph - N/A   Overcast
2:35 AM 35.6 °F 30.7 °F 28.4 °F 75% 29.75 in 10.0 mi ESE 5.8 mph - N/A   Overcast
2:55 AM 35.6 °F 28.0 °F 28.4 °F 75% 29.73 in 10.0 mi SE 10.4 mph - N/A   Light Drizzle
3:15 AM 33.8 °F 25.3 °F 30.2 °F 87% 29.73 in 5.0 mi SE 11.5 mph - N/A   Overcast
3:30 AM 33.8 °F 25.8 °F 32.0 °F 93% 29.72 in 5.0 mi SE 10.4 mph - N/A   Overcast
3:55 AM 33.8 °F 27.0 °F 32.0 °F 93% 29.71 in 5.0 mi SE 8.1 mph - N/A   Overcast
4:10 AM 33.8 °F 25.8 °F 32.0 °F 93% 29.70 in 5.0 mi SE 10.4 mph - N/A   Overcast
4:35 AM 33.8 °F 26.4 °F 32.0 °F 93% 29.70 in 5.0 mi ESE 9.2 mph - N/A   Overcast
4:55 AM 33.8 °F 25.8 °F 32.0 °F 93% 29.69 in 4.0 mi ESE 10.4 mph - N/A   Overcast
5:15 AM 35.6 °F 27.1 °F 32.0 °F 87% 29.68 in 4.0 mi ESE 12.7 mph - N/A Snow Light Snow
5:35 AM 35.6 °F 26.6 °F 32.0 °F 87% 29.67 in 4.0 mi ESE 13.8 mph - N/A Rain Light Rain
5:55 AM 35.6 °F 27.1 °F 33.8 °F 93% 29.67 in 4.0 mi ESE 12.7 mph - N/A Rain Light Rain
6:15 AM 35.6 °F 27.5 °F 33.8 °F 93% 29.66 in 5.0 mi ESE 11.5 mph 18.4 mph N/A Rain Light Rain
6:35 AM 35.6 °F 27.5 °F 33.8 °F 93% 29.65 in 5.0 mi ESE 11.5 mph - N/A Rain Light Rain
6:55 AM 35.6 °F 26.6 °F 33.8 °F 93% 29.62 in 5.0 mi ESE 13.8 mph 20.7 mph N/A   Light Drizzle
7:15 AM 35.6 °F 26.6 °F 33.8 °F 93% 29.60 in 5.0 mi East 13.8 mph 19.6 mph N/A   Light Drizzle
7:35 AM 35.6 °F 27.5 °F 33.8 °F 93% 29.60 in 7.0 mi ESE 11.5 mph 20.7 mph N/A   Light Drizzle
7:55 AM 35.6 °F 27.1 °F 33.8 °F 93% 29.61 in 10.0 mi East 12.7 mph 18.4 mph N/A   Overcast
8:15 AM 35.6 °F 26.6 °F 33.8 °F 93% 29.58 in 10.0 mi East 13.8 mph 19.6 mph N/A   Overcast
8:35 AM 35.6 °F 27.1 °F 33.8 °F 93% 29.57 in 10.0 mi East 12.7 mph 19.6 mph N/A   Overcast
8:55 AM 35.6 °F 28.0 °F 33.8 °F 93% 29.60 in 10.0 mi East 10.4 mph - N/A   Overcast
9:15 AM 35.6 °F 28.0 °F 33.8 °F 93% 29.58 in 10.0 mi East 10.4 mph - N/A   Overcast
9:35 AM 35.6 °F 26.6 °F 33.8 °F 93% 29.56 in 10.0 mi East 13.8 mph - N/A   Overcast
9:55 AM 35.6 °F 26.2 °F 33.8 °F 93% 29.53 in 10.0 mi East 15.0 mph 18.4 mph N/A   Overcast
10:15 AM 35.6 °F 26.2 °F 33.8 °F 93% 29.53 in 10.0 mi East 15.0 mph - N/A   Overcast
10:35 AM 35.6 °F 25.9 °F 33.8 °F 93% 29.51 in 10.0 mi East 16.1 mph 19.6 mph N/A   Overcast
10:55 AM 35.6 °F 26.2 °F 33.8 °F 93% 29.50 in 7.0 mi East 15.0 mph 21.9 mph N/A   Overcast
12:30 PM 35.6 °F 23.7 °F 33.8 °F 93% 29.36 in 3.0 mi East 24.2 mph 28.8 mph N/A   Overcast
12:55 PM 35.6 °F 24.0 °F 33.8 °F 93% 29.33 in 1.8 mi East 23.0 mph 28.8 mph N/A   Overcast
1:15 PM 35.6 °F 24.5 °F 33.8 °F 93% 29.32 in 2.5 mi East 20.7 mph 27.6 mph N/A   Overcast
1:35 PM 35.6 °F 24.8 °F 33.8 °F 93% 29.30 in 3.0 mi East 19.6 mph 26.5 mph N/A   Overcast
1:55 PM 35.6 °F 24.5 °F 33.8 °F 93% 29.26 in 1.5 mi East 20.7 mph 26.5 mph N/A   Light Drizzle
2:15 PM 35.6 °F 25.2 °F 33.8 °F 93% 29.24 in 2.0 mi East 18.4 mph 32.2 mph N/A   Overcast
2:35 PM 35.6 °F 25.2 °F 33.8 °F 93% 29.23 in 1.8 mi East 18.4 mph 26.5 mph N/A Rain Rain
5:15 PM 35.6 °F 27.5 °F 33.8 °F 93% 29.07 in 7.0 mi East 11.5 mph 20.7 mph 0.03 in   Overcast
5:35 PM 35.6 °F 27.1 °F 35.6 °F 100% 29.06 in 2.5 mi East 12.7 mph - 0.07 in   Overcast
5:55 PM 37.4 °F 30.3 °F 35.6 °F 93% 29.04 in 1.2 mi East 10.4 mph 17.3 mph 0.10 in   Overcast
6:15 PM 37.4 °F 30.8 °F 35.6 °F 93% 29.03 in 0.5 mi SE 9.2 mph 12.7 mph 0.02 in Rain Light Rain
6:35 PM 39.2 °F 31.2 °F 37.4 °F 93% 29.03 in 0.5 mi South 13.8 mph 23.0 mph 0.02 in Rain Light Rain
6:55 PM 39.2 °F 30.2 °F 37.4 °F 93% 29.03 in 2.0 mi South 17.3 mph 23.0 mph 0.02 in   Light Drizzle
7:15 PM 37.4 °F 26.4 °F 35.6 °F 93% 29.02 in 5.0 mi SSW 23.0 mph 31.1 mph N/A   Overcast
7:35 PM 37.4 °F 26.1 °F 35.6 °F 93% 29.03 in 10.0 mi SW 24.2 mph 33.4 mph N/A   Overcast
7:55 PM 35.6 °F 24.2 °F 33.8 °F 93% 29.05 in 7.0 mi WSW 21.9 mph 33.4 mph N/A   Overcast
8:15 PM 35.6 °F 23.7 °F 33.8 °F 93% 29.08 in 7.0 mi WSW 24.2 mph 31.1 mph N/A   Overcast
8:35 PM 33.8 °F 21.0 °F 32.0 °F 93% 29.10 in 7.0 mi WSW 25.3 mph 32.2 mph N/A Snow Light Snow
8:55 PM 33.8 °F 21.6 °F 32.0 °F 93% 29.11 in 2.0 mi WSW 23.0 mph 31.1 mph N/A Snow Light Snow
9:15 PM 33.8 °F 21.3 °F 32.0 °F 93% 29.12 in 4.0 mi WSW 24.2 mph 32.2 mph N/A Snow Light Snow
9:35 PM 33.8 °F 22.2 °F 32.0 °F 93% 29.13 in 10.0 mi WSW 20.7 mph 35.7 mph N/A   Overcast
9:55 PM 33.8 °F 21.6 °F 32.0 °F 93% 29.13 in 10.0 mi WSW 23.0 mph 38.0 mph N/A   Overcast
10:10 PM 33.8 °F 21.0 °F 32.0 °F 93% 29.14 in 10.0 mi WSW 25.3 mph 39.1 mph N/A   Overcast
10:35 PM 33.8 °F 19.9 °F 32.0 °F 93% 29.14 in 10.0 mi WSW 31.1 mph 39.1 mph N/A   Overcast
10:50 PM 33.8 °F 20.5 °F 32.0 °F 93% 29.15 in 10.0 mi WSW 27.6 mph 40.3 mph N/A   Overcast
11:15 PM 35.6 °F 23.0 °F 32.0 °F 87% 29.16 in 10.0 mi WSW 27.6 mph 36.8 mph N/A   Overcast
11:35 PM 33.8 °F 20.5 °F 30.2 °F 87% 29.17 in 10.0 mi WSW 27.6 mph 34.5 mph N/A   Overcast
11:55 PM 32.0 °F 17.2 °F 28.4 °F 87% 29.18 in 10.0 mi WSW 32.2 mph 39.1 mph N/A   Overcast